[[{"header":{"parameterUnit":"m.s-1","parameterCategory":1,"la1":30.2991,"la2":30.254,"lo1":-89.0895,"lo2":-89.0444,"dy":0.0017,"dx":0.0017,"nx":28,"ny":28,"refTime":"2023-06-26T21:00:00:Z","depth":0,"parameterNumber":2,"parameterNumberName":"U-component_of_WINDS"},"data":[0,0,0,0,0,0,0,0,0,0,0,0,0,0,0,0,0,0,0,0,0,0,0,0,0,0,0,0,0,0,0,0,0,0,0,0,0,0,0,0,0,0,0,0,0,0,0,0,0,0,0,0,0,0,0,0,0,0,1.8806,1.8808,0,1.8917,1.8918,1.892,1.8926,1.8925,1.8923,1.8922,1.9038,1.9043,1.9047,0,0,0,0,0,0,0,0,0,0,0,0,0,1.8603,1.8607,1.8806,1.8808,1.8809,1.8917,1.8918,1.892,1.8926,1.8925,1.8923,1.8922,1.9037,1.9042,1.9047,0,0,0,0,0,0,0,0,0,0,0,0,0,1.8701,1.8608,1.8806,1.8825,1.8828,1.8917,1.8918,1.892,1.8926,1.8925,1.8923,1.8921,1.9035,1.9042,1.9048,1.9126,0,0,1.9068,1.907,0,0,0,0,0,0,0,0,1.8695,1.8708,1.8821,1.8824,1.8827,1.8906,1.889,1.8989,1.8927,1.8889,1.8922,1.892,1.8996,1.9005,1.9031,1.9131,1.9136,1.9068,1.9072,1.9075,1.9077,0,0,0,0,0,0,0,1.8688,1.8703,1.885,1.8823,1.8826,1.8829,1.8841,1.8908,1.8952,1.8892,1.8893,1.8906,1.8997,1.9024,1.9033,1.9138,1.9068,1.9074,1.9078,1.908,1.931,1.9312,0,0,0,0,0,0,1.8677,1.8698,1.8847,1.8854,1.8755,1.8834,1.8847,1.8882,1.8951,1.896,1.8907,1.8906,1.9014,1.9026,1.9037,1.9134,1.9075,1.9081,1.9084,1.9308,1.9311,1.9313,0,0,0,0,0,0,1.8673,1.8691,1.8842,1.8776,1.8795,1.884,1.8879,1.8886,1.8913,1.8963,1.8971,1.8927,1.9013,1.9028,1.9104,1.9138,1.9084,1.9089,1.9305,1.9309,1.9312,1.9328,0,0,0,0,0,0,1.8667,1.8689,1.8718,1.8776,1.8799,1.8906,1.8881,1.8889,1.8923,1.8922,1.8983,1.8991,1.9013,1.9094,1.911,1.9146,1.9094,1.9302,1.9307,1.9311,1.9325,1.9331,1.9337,0,0,0,0,0,1.866,1.8719,1.872,1.8738,1.8836,1.8908,1.8921,1.8944,1.8926,1.8957,1.8989,1.8989,1.9132,1.9102,1.912,1.9158,1.93,1.9306,1.9311,1.9322,1.933,1.9337,0,0,0,0,0,0,1.8664,1.8727,1.8728,1.8808,1.8852,1.8909,1.8948,1.8952,1.9003,1.9,1.9027,1.9041,1.9116,1.9145,1.911,1.9238,1.9214,1.9223,1.9217,1.9225,1.9231,1.9223,1.91,0,0,0,0,0,1.8674,1.8726,1.8778,1.8843,1.8866,1.8903,1.8935,1.8949,1.8996,1.9016,1.9053,1.9101,1.9156,1.9192,1.9246,1.9329,1.9343,1.9364,1.9371,1.9376,1.9383,1.943,1.9441,1.933,1.933,1.933,0,0,1.8696,1.8736,1.8768,1.8845,1.8881,1.8936,1.8919,1.8977,1.9018,1.9025,1.9098,1.9128,1.9183,1.9262,1.9299,1.9289,1.9417,1.9382,1.9386,1.9391,1.9437,1.9447,1.9456,1.9333,1.9333,1.9332,0,0,1.8763,1.8798,1.8856,1.8893,1.8948,1.8973,1.8987,1.9043,1.9063,1.9137,1.9144,1.9193,1.9288,1.9327,1.9359,1.9442,1.9445,1.9459,1.9493,1.9538,1.9547,1.9555,1.9585,1.9596,1.9466,1.9466,1.9466,0,1.8783,1.8864,1.8886,1.8944,1.8979,1.8987,1.9047,1.9082,1.9152,1.9176,1.9163,1.9283,1.932,1.941,1.943,1.9456,1.9474,1.9452,1.9544,1.9552,1.956,1.9589,1.96,1.9468,1.9468,1.9467,1.9467,0,1.8886,1.8943,1.8983,1.905,1.9089,1.9148,1.918,1.9218,1.9228,1.9255,1.9331,1.9376,1.944,1.9462,1.9473,1.9554,1.9546,1.9538,1.9514,1.9571,1.9599,1.9611,1.947,1.9469,1.9469,1.9469,0,0,1.8959,1.9037,1.9052,1.9083,1.9144,1.9189,1.9249,1.931,1.9342,1.9391,1.9442,1.9523,1.9516,1.9553,1.9569,1.9609,1.9673,1.9596,1.9598,1.961,1.9766,1.9771,1.9784,1.9675,1.9677,1.9679,1.9761,0,1.9033,1.9138,1.9161,1.9252,1.9305,1.9315,1.9367,1.9411,1.9438,1.9487,1.9517,1.9574,1.9561,1.9583,1.9623,1.9656,1.9705,1.9651,1.9724,1.9727,1.9711,1.9798,1.9804,1.9879,1.9772,1.9774,1.9775,0,1.9133,1.9183,1.928,1.9336,1.9359,1.9405,1.9464,1.9511,1.9562,1.9579,1.962,1.9632,1.9696,1.9669,1.9758,1.9721,1.9753,1.9774,1.9778,1.9786,1.9755,1.9809,1.9904,1.9915,1.9793,1.9791,1.979,0,1.9177,1.9269,1.9339,1.9365,1.9431,1.9464,1.9493,1.9542,1.9578,1.963,1.9654,1.9712,1.9745,1.9791,1.9819,1.9797,1.9907,1.9882,1.9923,1.9923,1.9946,1.9944,2.0048,1.9966,1.9965,1.9965,1.9965,0,1.9258,1.9317,1.936,1.9403,1.947,1.9495,1.9561,1.9591,1.9634,1.9684,1.9696,1.9743,1.9777,1.9829,1.9852,1.9923,1.9937,1.9953,1.9959,1.9953,1.9951,1.9974,1.9969,1.9968,1.9968,1.9967,1.9967,0,1.9318,1.9349,1.9426,1.9482,1.9498,1.9545,1.9594,1.9637,1.9664,1.9727,1.9743,1.9786,1.9848,1.988,1.9958,1.9973,2.0053,2.0056,2.0036,2.0038,2.0078,2.0074,2.02,2.0219,2.0124,2.0125,2.0125,0,1.9368,1.9413,1.9475,1.9508,1.9538,1.9593,1.9629,1.9657,1.9695,1.9757,1.9793,1.9855,1.9906,2.0005,2.0044,2.0104,2.0108,2.0148,2.0117,2.011,2.0109,2.0106,2.0112,2.0154,2.0155,2.0155,2.0156,0,1.9453,1.9466,1.9518,1.9575,1.9618,1.9665,1.9711,1.9739,1.9774,1.9817,1.988,1.9919,1.9999,2.0061,2.0124,2.0156,2.0163,2.0165,2.0178,2.0172,2.0159,2.0168,2.0051,2.0162,2.0162,2.0161,2.0161,2.0161,1.951,1.9551,1.9601,1.9658,1.9696,1.9739,1.9782,1.9815,1.9867,1.9933,1.9947,2.0014,2.0065,2.015,2.0184,2.0238,2.0229,2.0248,2.0253,2.0257,2.0259,2.0151,2.0249,2.0249,2.0249,2.0249,2.0249,0,1.9596,1.9629,1.9681,1.9745,1.9791,1.9792,1.9844,1.9882,1.9941,1.9987,2.0038,2.0111,2.0172,2.0215,2.0278,2.0312,2.0317,2.0328,2.0326,2.0333,2.0262,2.0245,2.0323,2.0323,2.0323,2.0323,2.0323,2.0323,1.9646,1.9716,1.9735,1.9825,1.9857,1.9922,1.9952,1.9992,2.003,2.011,2.0161,2.0188,2.0234,2.03,2.0357,2.0368,2.0391,2.0401,2.0413,2.0346,2.0338,2.0331,2.0315,2.0406,2.0406,2.048,2.048,2.0481]},{"header":{"parameterUnit":"m.s-1","parameterCategory":1,"la1":30.2991,"la2":30.254,"lo1":-89.0895,"lo2":-89.0444,"dy":0.0017,"dx":0.0017,"nx":28,"ny":28,"refTime":"2023-06-26T21:00:00:Z","depth":0,"parameterNumber":3,"parameterNumberName":"V-component_of_WINDS"},"data":[0,0,0,0,0,0,0,0,0,0,0,0,0,0,0,0,0,0,0,0,0,0,0,0,0,0,0,0,0,0,0,0,0,0,0,0,0,0,0,0,0,0,0,0,0,0,0,0,0,0,0,0,0,0,0,0,0,0,0.8604,0.8605,0,0.8645,0.8646,0.8646,0.8622,0.862,0.8619,0.8618,0.8662,0.8664,0.8667,0,0,0,0,0,0,0,0,0,0,0,0,0,0.8506,0.8508,0.8604,0.8605,0.8605,0.8645,0.8646,0.8646,0.8622,0.862,0.8619,0.8618,0.8661,0.8664,0.8667,0,0,0,0,0,0,0,0,0,0,0,0,0,0.8548,0.8508,0.8604,0.8598,0.8597,0.8645,0.8646,0.8647,0.8622,0.862,0.8619,0.8617,0.8661,0.8664,0.8667,0.8724,0,0,0.8678,0.8679,0,0,0,0,0,0,0,0,0.8546,0.8552,0.8598,0.8598,0.8598,0.8626,0.8627,0.8673,0.8623,0.8613,0.8618,0.8616,0.8652,0.8656,0.8668,0.8726,0.8728,0.8678,0.868,0.8682,0.8683,0,0,0,0,0,0,0,0.8543,0.855,0.862,0.8599,0.8599,0.8593,0.8597,0.8636,0.8642,0.8614,0.8612,0.8617,0.8652,0.8664,0.8668,0.8729,0.8678,0.8681,0.8683,0.8684,0.8837,0.8839,0,0,0,0,0,0,0.854,0.8547,0.8619,0.8622,0.8567,0.8597,0.8601,0.8619,0.8641,0.8643,0.8618,0.8616,0.8659,0.8665,0.867,0.8739,0.8682,0.8685,0.8687,0.8835,0.8837,0.884,0,0,0,0,0,0,0.8538,0.8547,0.8617,0.8584,0.8593,0.86,0.8621,0.8621,0.8634,0.8645,0.8646,0.863,0.8658,0.8665,0.8711,0.874,0.8686,0.8689,0.8833,0.8836,0.8839,0.8877,0,0,0,0,0,0,0.8535,0.8546,0.8567,0.8585,0.8595,0.8657,0.8622,0.8623,0.864,0.8636,0.8657,0.8658,0.8657,0.8706,0.8714,0.8744,0.8692,0.883,0.8834,0.8838,0.8873,0.8881,0.8888,0,0,0,0,0,0.8532,0.8577,0.8568,0.8577,0.8621,0.8659,0.8665,0.8662,0.8642,0.8664,0.8671,0.8658,0.8735,0.8711,0.872,0.8751,0.8828,0.8833,0.8837,0.887,0.8879,0.8887,0,0,0,0,0,0,0.8563,0.8579,0.857,0.8622,0.8639,0.8655,0.8682,0.8672,0.8696,0.8692,0.8689,0.8694,0.8742,0.8751,0.8723,0.8808,0.8779,0.8785,0.88,0.8809,0.8816,0.8814,0.8695,0,0,0,0,0,0.8576,0.8605,0.8617,0.8661,0.8671,0.8675,0.8691,0.8688,0.8706,0.8714,0.8724,0.8743,0.8772,0.8791,0.8818,0.8874,0.8879,0.89,0.8907,0.8913,0.8919,0.895,0.896,0.8854,0.8854,0.8854,0,0,0.8603,0.8615,0.8633,0.8668,0.8681,0.8712,0.8681,0.8715,0.8738,0.8719,0.8763,0.8772,0.8792,0.8844,0.8867,0.8853,0.8949,0.8918,0.8923,0.8926,0.8956,0.8966,0.8975,0.8857,0.8857,0.8856,0,0,0.8668,0.8679,0.8718,0.8732,0.8752,0.8755,0.8764,0.8781,0.8786,0.883,0.8817,0.8844,0.8893,0.8909,0.8923,0.8994,0.8983,0.9003,0.9041,0.9072,0.9081,0.9088,0.9115,0.9124,0.9009,0.9009,0.9009,0,0.8699,0.8744,0.8739,0.8774,0.8791,0.8774,0.8814,0.8827,0.8856,0.8867,0.8851,0.8913,0.8925,0.8981,0.8998,0.901,0.9021,0.9002,0.908,0.9087,0.9094,0.9119,0.9129,0.9011,0.9011,0.9011,0.9011,0,0.8782,0.8814,0.8843,0.887,0.889,0.8927,0.8928,0.8948,0.8943,0.8948,0.8993,0.9008,0.9038,0.905,0.9046,0.9106,0.9096,0.908,0.9051,0.9106,0.913,0.914,0.9015,0.9014,0.9013,0.9013,0,0,0.8869,0.8893,0.8904,0.8917,0.8938,0.8963,0.8999,0.9028,0.9046,0.9066,0.9097,0.9139,0.9124,0.9141,0.9137,0.9164,0.9221,0.9144,0.9145,0.9159,0.929,0.9303,0.9315,0.9213,0.9215,0.9216,0.9288,0,0.8937,0.9,0.8997,0.9057,0.9087,0.9072,0.9104,0.912,0.9126,0.9152,0.9158,0.9188,0.9165,0.9175,0.9201,0.9209,0.9248,0.9203,0.9244,0.9245,0.9241,0.9327,0.9341,0.9408,0.9298,0.9299,0.93,0,0.9024,0.9047,0.911,0.9127,0.914,0.9168,0.9195,0.922,0.9239,0.9241,0.9259,0.9252,0.929,0.9259,0.9312,0.9282,0.9298,0.9304,0.9307,0.9312,0.9277,0.9336,0.943,0.944,0.9315,0.9314,0.9313,0,0.9083,0.9129,0.9173,0.9184,0.9205,0.9226,0.9236,0.9253,0.927,0.9294,0.9306,0.9333,0.9348,0.937,0.9371,0.9348,0.9425,0.9393,0.9429,0.9429,0.9447,0.9446,0.9546,0.9455,0.9455,0.9454,0.9454,0,0.916,0.9199,0.92,0.9227,0.9271,0.9267,0.9311,0.9319,0.9334,0.9363,0.9351,0.9379,0.9377,0.9405,0.9406,0.945,0.9457,0.946,0.946,0.9463,0.9462,0.9474,0.947,0.9457,0.9456,0.9456,0.9455,0,0.9234,0.9235,0.9283,0.9298,0.9303,0.9335,0.9349,0.9375,0.9379,0.9416,0.9424,0.9431,0.9463,0.9466,0.9503,0.9504,0.9558,0.9552,0.9552,0.9552,0.9587,0.9585,0.97,0.9716,0.9612,0.9613,0.9614,0,0.9283,0.9313,0.9332,0.935,0.9361,0.9391,0.9409,0.9406,0.9426,0.945,0.9473,0.9505,0.953,0.9583,0.9591,0.962,0.9616,0.9654,0.962,0.9622,0.9618,0.9617,0.9621,0.9661,0.9663,0.9664,0.9664,0,0.9371,0.9371,0.9397,0.9424,0.9446,0.9467,0.9487,0.9503,0.9502,0.9525,0.9558,0.9577,0.9616,0.9647,0.9676,0.9686,0.9676,0.9675,0.9685,0.9688,0.9687,0.969,0.9572,0.9672,0.9672,0.9671,0.9671,0.967,0.9436,0.9462,0.948,0.951,0.9524,0.9543,0.9568,0.9575,0.9603,0.9634,0.963,0.9667,0.9686,0.9723,0.9736,0.9765,0.9752,0.9766,0.977,0.9774,0.9779,0.9681,0.977,0.977,0.977,0.9769,0.9769,0,0.9525,0.9535,0.9562,0.959,0.9614,0.9601,0.9622,0.9643,0.9676,0.9694,0.9719,0.9757,0.9788,0.9799,0.9829,0.9851,0.9847,0.9859,0.9858,0.9861,0.9788,0.9777,0.9861,0.9861,0.9861,0.9861,0.9861,0.9861,0.9574,0.9618,0.962,0.9672,0.9682,0.9718,0.9731,0.9749,0.9763,0.9807,0.9832,0.9838,0.9854,0.9885,0.9913,0.9916,0.9928,0.9943,0.9943,0.9875,0.9866,0.9857,0.9847,0.9945,0.9945,1.0014,1.0015,1.0015]}]]